Terminal Aerodrome Forecast
Issued by NWS State College, PA

Home | Current Version | Previous Version | Text Only | Print | Product List | Glossary On
Versions: 1 2 3 4 5 6 7 8 9 10 11 12 13 14 15 16 17 18 19 20 21 22 23 24 25 26 27 28 29 30 31 32 33 34 35 36 37 38 39 40 41 42 43 44 45 46 47
000
FTUS41 KCTP 240538
TAFIPT
TAF
KIPT 240538Z 2406/2506 VRB03KT P6SM SCT250
     FM241600 21005KT P6SM SCT100 BKN250
     FM250200 VRB03KT P6SM BKN100 PROB30 2502/2506 5SM -TSRA
      OVC050CB=

USA.gov is the U.S. government's official web portal to all federal, state and local government web resources and services.